Location: Sternwarte_Laufen
(47.9344°N, 12.9346°E)
Time: 00:43:11
(UTC+02:00)

ISS - Pass Details

Date: 25 May 2017
Orbit: 402 x 408 km, 51.6° (Epoch: 27 May)

Event Time Altitude Azimuth Distance (km) Brightness Sun altitude
Rises 22:35:37 0° 240° (WSW) 2,326 0.1 -13.2°
Reaches altitude 10° 22:37:42 10° 239° (WSW) 1,467 -0.9 -13.5°
Maximum altitude 22:40:59 75° 155° (SSE) 427 -4.0 -13.8°
Drops below altitude 10° 22:44:16 10° 69° (ENE) 1,471 -1.1 -14.1°
Sets 22:46:22 0° 67° (ENE) 2,332 -0.1 -14.3°
